Weather in Tasucu

Turkey     36°19′11″N   33°52′48″E
temp.,
°C
wind,
m/s
gust,
m/s
humid.,
%
clouds,
%
prec.,
mm/h
press.,
hPa
HPBL,
m
14 may, fri
fri1400:00+22sw56700 0.0 1013433
03:00+22sw33690 0.0 1012418
06:00+21n22660 0.0 1013214
09:00+22ene33670 0.0 1014527
12:00+22ssw54715 0.0 1015415
15:00+22sw666865 0.0 1014361
18:00+22sw89740 0.0 1013411
21:00+22sw78750 0.0 1013411
15 may, sat
sat1500:00+22wsw55750 0.0 1013449
03:00+21wsw33730 0.0 1012310
06:00+20n22770 0.0 1012184
09:00+21ene22760 0.0 1013446
12:00+21sw54775 0.0 1013366
15:00+22sw66690 0.0 1011292
18:00+22sw787488 0.0 1010440
21:00+22sw337268 0.0 1010342
16 may, sun
sun1600:00+21nw11720 0.0 1009391
03:00+21ne44760 0.0 1008415
06:00+21ne5676100 0.0 1008571
09:00+21ne5572100 0.0 1009781
12:00+22e337138 0.0 1009474
15:00+22ssw3366100 0.0 1009528
18:00+22sw6766100 0.0 1007509
21:00+22wsw5668100 0.0 1008466
17 may, mon
mon1700:00+22sw45650 0.0 1008500
03:00+21w22680 0.0 1007395
06:00+20nne22690 0.0 1008199
09:00+21ene22670 0.0 1010555
12:00+21ssw44680 0.0 1010416
15:00+22sw77680 0.0 1009445
18:00+22sw910710 0.0 1008366
21:00+22sw89760 0.0 1010356
18 may, tue
tue1800:00+22sw22730 0.0 1010239
03:00+21nne55780 0.0 1011273
06:00+22ne66780 0.0 1011459
09:00+22ene66760 0.0 1013574
12:00+22e33760 0.0 1013339
15:00+22ssw227816 0.0 1012232
18:00+23ssw33710 0.0 1011311
21:00+22sw44785 0.0 1012235